SBI5341 UNNT-UNOO

Flight info

Callsign SBI5341
Flight time 1h 5m
Altitude 32000
Route OGAMA1K OGAMA A308 OSNAB G828 SZ A487 URUKI A844 RUMOD RUMOD5A
Aircraft E170/M-SDE3GILORVW/S

Departure

Time 2026-04-21 05:34
Airport Novosibirsk Tolmachevo Airport (UNNT)

Arrival

Time 2026-04-21 06:39
Airport Omsk Central Airport (UNOO)
Time Latitude Longitude Altitude Speed Heading
2026-04-21 04:58 55.00964 82.66544 371 ft 0 kts 170°
2026-04-21 05:25 55.00969 82.66542 371 ft 2 kts 170°
2026-04-21 05:26 55.00991 82.66536 371 ft 2 kts 171°
2026-04-21 05:26 55.01007 82.66532 371 ft 2 kts 171°
2026-04-21 05:26 55.01018 82.66528 371 ft 2 kts 167°
2026-04-21 05:26 55.01034 82.66519 371 ft 2 kts 150°
2026-04-21 05:27 55.01043 82.66496 371 ft 2 kts 98°
2026-04-21 05:27 55.01043 82.66482 371 ft 0 kts 76°
2026-04-21 05:30 55.01052 82.66525 371 ft 9 kts 65°
2026-04-21 05:30 55.01112 82.66654 371 ft 14 kts
2026-04-21 05:30 55.01195 82.66639 371 ft 11 kts 352°
2026-04-21 05:30 55.01277 82.66616 371 ft 13 kts 351°
2026-04-21 05:31 55.01363 82.66583 372 ft 12 kts 319°
2026-04-21 05:31 55.01369 82.66573 372 ft 12 kts 307°
2026-04-21 05:32 55.01377 82.66525 372 ft 6 kts 265°
2026-04-21 05:32 55.01376 82.66518 372 ft 0 kts 261°
2026-04-21 05:33 55.01367 82.66404 372 ft 42 kts 262°
2026-04-21 05:33 55.01273 82.65368 371 ft 129 kts 261°
2026-04-21 05:34 55.01114 82.63543 922 ft 154 kts 262°
2026-04-21 05:34 55.01032 82.62699 1489 ft 154 kts 260°
2026-04-21 05:34 55.00921 82.61655 1991 ft 164 kts 259°
2026-04-21 05:34 55.00694 82.59539 2742 ft 196 kts 261°
2026-04-21 05:35 55.00497 82.57129 3783 ft 202 kts 263°
2026-04-21 05:35 55.00308 82.54722 4906 ft 198 kts 264°
2026-04-21 05:35 55.00353 82.52189 5365 ft 228 kts 282°
2026-04-21 05:35 55.01086 82.49547 5775 ft 255 kts 308°
2026-04-21 05:36 55.02394 82.47351 6223 ft 268 kts 315°
2026-04-21 05:36 55.03758 82.45262 6658 ft 254 kts 316°
2026-04-21 05:36 55.05097 82.43212 7314 ft 257 kts 315°
2026-04-21 05:36 55.06440 82.41153 7972 ft 258 kts 315°
2026-04-21 05:37 55.07789 82.39083 8642 ft 258 kts 314°
2026-04-21 05:37 55.08840 82.36586 9484 ft 256 kts 299°
2026-04-21 05:37 55.09716 82.33904 10260 ft 261 kts 298°
2026-04-21 05:37 55.10641 82.30992 10462 ft 283 kts 297°
2026-04-21 05:38 55.11592 82.27987 11334 ft 282 kts 297°
2026-04-21 05:38 55.12540 82.24977 12212 ft 283 kts 296°
2026-04-21 05:38 55.13491 82.21960 13095 ft 284 kts 296°
2026-04-21 05:38 55.14444 82.18930 13987 ft 286 kts 296°
2026-04-21 05:39 55.15406 82.15865 14780 ft 289 kts 296°
2026-04-21 05:39 55.16378 82.12763 15600 ft 292 kts 296°
2026-04-21 05:39 55.17358 82.09636 16418 ft 294 kts 296°
2026-04-21 05:39 55.18344 82.06483 17227 ft 298 kts 296°
2026-04-21 05:40 55.19344 82.03281 18025 ft 301 kts 296°
2026-04-21 05:40 55.20353 82.00044 18715 ft 305 kts 296°
2026-04-21 05:40 55.21357 81.96820 19418 ft 307 kts 296°
2026-04-21 05:40 55.22385 81.93519 20098 ft 309 kts 296°
2026-04-21 05:41 55.23418 81.90194 20766 ft 312 kts 296°
2026-04-21 05:41 55.24459 81.86838 21434 ft 315 kts 296°
2026-04-21 05:41 55.25508 81.83450 22100 ft 318 kts 296°
2026-04-21 05:41 55.26568 81.80026 22773 ft 321 kts 296°
2026-04-21 05:42 55.27636 81.76566 23465 ft 324 kts 296°
2026-04-21 05:42 55.28716 81.73060 24076 ft 327 kts 296°
2026-04-21 05:42 55.29804 81.69528 24684 ft 330 kts 296°
2026-04-21 05:42 55.30898 81.65971 25265 ft 333 kts 296°
2026-04-21 05:43 55.32002 81.62375 25831 ft 336 kts 296°
2026-04-21 05:43 55.33116 81.58739 26376 ft 339 kts 296°
2026-04-21 05:43 55.34240 81.55070 26891 ft 342 kts 296°
2026-04-21 05:43 55.35370 81.51374 27384 ft 345 kts 296°
2026-04-21 05:44 55.36508 81.47646 27890 ft 347 kts 296°
2026-04-21 05:44 55.37640 81.43930 28372 ft 350 kts 296°
2026-04-21 05:44 55.38793 81.40141 28860 ft 353 kts 296°
2026-04-21 05:44 55.39956 81.36312 29352 ft 356 kts 296°
2026-04-21 05:45 55.41122 81.32468 29812 ft 359 kts 296°
2026-04-21 05:45 55.42301 81.28577 30242 ft 361 kts 296°
2026-04-21 05:45 55.43484 81.24662 30645 ft 362 kts 296°
2026-04-21 05:45 55.44669 81.20733 31052 ft 364 kts 296°
2026-04-21 05:46 55.45857 81.16789 31427 ft 365 kts 295°
2026-04-21 05:46 55.46886 81.12703 31750 ft 365 kts 286°
2026-04-21 05:46 55.47563 81.08363 31995 ft 368 kts 284°
2026-04-21 05:46 55.48177 81.03932 32046 ft 376 kts 283°
2026-04-21 05:47 55.49428 80.94808 32078 ft 387 kts 283°
2026-04-21 05:47 55.50692 80.85598 32051 ft 390 kts 283°
2026-04-21 05:48 55.51965 80.76291 32040 ft 390 kts 283°
2026-04-21 05:48 55.53231 80.66973 32042 ft 390 kts 283°
2026-04-21 05:49 55.54492 80.57638 32043 ft 390 kts 283°
2026-04-21 05:49 55.55746 80.48297 32046 ft 390 kts 283°
2026-04-21 05:50 55.56993 80.38951 32048 ft 390 kts 283°
2026-04-21 05:50 55.58233 80.29598 32048 ft 390 kts 283°
2026-04-21 05:51 55.59460 80.20289 32051 ft 391 kts 283°
2026-04-21 05:51 55.60687 80.10914 32054 ft 390 kts 283°
2026-04-21 05:52 55.61905 80.01551 32059 ft 390 kts 283°
2026-04-21 05:52 55.63081 79.92176 32057 ft 390 kts 278°
2026-04-21 05:53 55.62977 79.87439 32053 ft 395 kts 261°
2026-04-21 05:53 55.62276 79.82721 32064 ft 398 kts 257°
2026-04-21 05:53 55.60660 79.73353 32052 ft 398 kts 257°
2026-04-21 05:54 55.59067 79.63964 32051 ft 398 kts 257°
2026-04-21 05:54 55.57485 79.54601 32049 ft 398 kts 257°
2026-04-21 05:55 55.55907 79.45280 32050 ft 398 kts 257°
2026-04-21 05:55 55.54314 79.35915 32047 ft 398 kts 257°
2026-04-21 05:56 55.52712 79.26549 32048 ft 398 kts 257°
2026-04-21 05:56 55.51102 79.17182 32042 ft 398 kts 257°
2026-04-21 05:57 55.49485 79.07828 32038 ft 398 kts 257°
2026-04-21 05:57 55.47868 78.98525 32039 ft 399 kts 257°
2026-04-21 05:58 55.46234 78.89170 32034 ft 399 kts 256°
2026-04-21 05:58 55.44596 78.79844 32030 ft 399 kts 256°
2026-04-21 05:59 55.42948 78.70503 32032 ft 399 kts 256°
2026-04-21 06:00 55.40473 78.56571 32032 ft 399 kts 256°
2026-04-21 06:00 55.38807 78.47250 32027 ft 399 kts 256°
2026-04-21 06:01 55.37135 78.37938 32024 ft 400 kts 256°
2026-04-21 06:01 55.35850 78.28506 32008 ft 394 kts 272°
2026-04-21 06:02 55.36467 78.18944 32033 ft 393 kts 278°
2026-04-21 06:02 55.37176 78.09464 32027 ft 393 kts 277°
2026-04-21 06:03 55.37855 77.99904 32031 ft 393 kts 277°
2026-04-21 06:03 55.38518 77.90369 32031 ft 393 kts 277°
2026-04-21 06:04 55.39171 77.80807 32025 ft 393 kts 277°
2026-04-21 06:04 55.39815 77.71253 32030 ft 393 kts 277°
2026-04-21 06:05 55.40453 77.61678 32024 ft 393 kts 277°
2026-04-21 06:05 55.41081 77.52129 32026 ft 393 kts 277°
2026-04-21 06:06 55.41700 77.42610 32031 ft 393 kts 276°
2026-04-21 06:06 55.42314 77.33024 32021 ft 393 kts 276°
2026-04-21 06:07 55.42923 77.23440 32029 ft 393 kts 276°
2026-04-21 06:07 55.43522 77.13873 32022 ft 393 kts 276°
2026-04-21 06:08 55.44111 77.04340 32024 ft 393 kts 276°
2026-04-21 06:08 55.44696 76.94760 32027 ft 393 kts 276°
2026-04-21 06:09 55.45273 76.85163 32021 ft 393 kts 276°
2026-04-21 06:09 55.45840 76.75619 32018 ft 393 kts 276°
2026-04-21 06:10 55.46402 76.66031 32022 ft 393 kts 276°
2026-04-21 06:10 55.46957 76.56443 32022 ft 393 kts 276°
2026-04-21 06:11 55.47505 76.46842 32020 ft 393 kts 275°
2026-04-21 06:11 55.48043 76.37249 32020 ft 393 kts 275°
2026-04-21 06:12 55.48575 76.27653 32018 ft 393 kts 275°
2026-04-21 06:12 55.49099 76.18056 32023 ft 393 kts 275°
2026-04-21 06:13 55.49612 76.08521 32016 ft 393 kts 275°
2026-04-21 06:13 55.50108 75.98925 32017 ft 393 kts 275°
2026-04-21 06:14 55.50599 75.89332 32010 ft 393 kts 275°
2026-04-21 06:14 55.51003 75.81338 32010 ft 393 kts 275°
2026-04-21 06:15 55.51481 75.71733 32009 ft 393 kts 275°
2026-04-21 06:15 55.51951 75.62130 32011 ft 393 kts 275°
2026-04-21 06:16 55.52414 75.52520 32005 ft 393 kts 275°
2026-04-21 06:16 55.52869 75.42896 32005 ft 393 kts 275°
2026-04-21 06:17 55.53315 75.33337 32002 ft 393 kts 274°
2026-04-21 06:17 55.53756 75.23711 31996 ft 393 kts 274°
2026-04-21 06:18 55.54188 75.14123 31671 ft 380 kts 274°
2026-04-21 06:18 55.54388 75.09587 31466 ft 361 kts 274°
2026-04-21 06:18 55.54579 75.05237 30961 ft 352 kts 275°
2026-04-21 06:18 55.54765 75.00987 30503 ft 342 kts 275°
2026-04-21 06:19 55.54942 74.96871 30056 ft 339 kts 275°
2026-04-21 06:19 55.55121 74.92699 29606 ft 344 kts 275°
2026-04-21 06:19 55.55303 74.88437 29124 ft 351 kts 275°
2026-04-21 06:19 55.55486 74.84111 28670 ft 355 kts 275°
2026-04-21 06:20 55.55669 74.79739 28187 ft 357 kts 275°
2026-04-21 06:20 55.55851 74.75341 27710 ft 359 kts 275°
2026-04-21 06:20 55.56032 74.70946 27234 ft 357 kts 275°
2026-04-21 06:20 55.56210 74.66580 26762 ft 355 kts 275°
2026-04-21 06:21 55.56384 74.62288 26300 ft 353 kts 274°
2026-04-21 06:21 55.56557 74.57971 25836 ft 351 kts 274°
2026-04-21 06:21 55.56727 74.53681 25353 ft 350 kts 274°
2026-04-21 06:21 55.56895 74.49398 24888 ft 348 kts 274°
2026-04-21 06:22 55.57061 74.45148 24437 ft 346 kts 274°
2026-04-21 06:22 55.57223 74.40911 23982 ft 345 kts 274°
2026-04-21 06:22 55.57385 74.36692 23515 ft 343 kts 274°
2026-04-21 06:22 55.57543 74.32547 23066 ft 340 kts 274°
2026-04-21 06:23 55.57702 74.28340 22594 ft 339 kts 274°
2026-04-21 06:23 55.57579 74.24260 22133 ft 339 kts 259°
2026-04-21 06:23 55.56643 74.20430 21707 ft 345 kts 240°
2026-04-21 06:23 55.55018 74.17272 21242 ft 349 kts 228°
2026-04-21 06:24 55.53214 74.14383 20759 ft 349 kts 226°
2026-04-21 06:24 55.51386 74.11590 20302 ft 346 kts 225°
2026-04-21 06:24 55.49575 74.08872 19834 ft 344 kts 225°
2026-04-21 06:24 55.47732 74.06121 19381 ft 341 kts 225°
2026-04-21 06:25 55.45926 74.03427 18928 ft 339 kts 225°
2026-04-21 06:25 55.44151 74.00782 18483 ft 337 kts 225°
2026-04-21 06:25 55.42365 73.98118 18003 ft 335 kts 225°
2026-04-21 06:25 55.40590 73.95474 17596 ft 332 kts 224°
2026-04-21 06:26 55.38826 73.92848 17127 ft 332 kts 224°
2026-04-21 06:26 55.37065 73.90231 16694 ft 330 kts 224°
2026-04-21 06:26 55.35313 73.87645 16257 ft 329 kts 223°
2026-04-21 06:26 55.33555 73.85083 15818 ft 327 kts 223°
2026-04-21 06:27 55.31805 73.82537 15389 ft 325 kts 223°
2026-04-21 06:27 55.30174 73.79819 14910 ft 321 kts 235°
2026-04-21 06:27 55.29004 73.76526 14545 ft 313 kts 243°
2026-04-21 06:27 55.28014 73.73051 14087 ft 320 kts 245°
2026-04-21 06:28 55.27060 73.69578 13689 ft 320 kts 245°
2026-04-21 06:28 55.26080 73.66123 13231 ft 313 kts 244°
2026-04-21 06:28 55.25089 73.62724 12851 ft 313 kts 244°
2026-04-21 06:28 55.24088 73.59324 12415 ft 311 kts 244°
2026-04-21 06:29 55.23092 73.55962 12032 ft 310 kts 244°
2026-04-21 06:29 55.22106 73.52634 11578 ft 307 kts 244°
2026-04-21 06:29 55.21125 73.49328 11191 ft 304 kts 244°
2026-04-21 06:29 55.20157 73.46059 10783 ft 299 kts 244°
2026-04-21 06:30 55.19201 73.42831 10390 ft 294 kts 243°
2026-04-21 06:30 55.18282 73.39757 9976 ft 274 kts 244°
2026-04-21 06:30 55.17429 73.36901 9655 ft 266 kts 244°
2026-04-21 06:30 55.16569 73.34027 9326 ft 269 kts 243°
2026-04-21 06:31 55.15711 73.31154 8975 ft 265 kts 243°
2026-04-21 06:31 55.14859 73.28298 8582 ft 264 kts 243°
2026-04-21 06:31 55.14009 73.25462 8282 ft 262 kts 243°
2026-04-21 06:31 55.13159 73.22633 7894 ft 265 kts 243°
2026-04-21 06:32 55.12303 73.19781 7546 ft 264 kts 242°
2026-04-21 06:32 55.11424 73.16964 7193 ft 263 kts 236°
2026-04-21 06:32 55.10281 73.14462 6863 ft 262 kts 230°
2026-04-21 06:32 55.09087 73.12040 6524 ft 263 kts 229°
2026-04-21 06:33 55.07895 73.09665 6146 ft 264 kts 228°
2026-04-21 06:33 55.06684 73.07272 5783 ft 261 kts 228°
2026-04-21 06:33 55.05506 73.04910 5498 ft 258 kts 228°
2026-04-21 06:33 55.04333 73.02557 5152 ft 256 kts 226°
2026-04-21 06:34 55.02920 73.00712 4870 ft 254 kts 204°
2026-04-21 06:34 55.01197 73.00052 4489 ft 256 kts 179°
2026-04-21 06:34 54.99475 73.00317 4466 ft 241 kts 169°
2026-04-21 06:34 54.97886 73.01045 4098 ft 227 kts 163°
2026-04-21 06:35 54.96451 73.01876 3780 ft 208 kts 161°
2026-04-21 06:35 54.95107 73.02737 3568 ft 205 kts 160°
2026-04-21 06:35 54.93768 73.03621 3478 ft 203 kts 158°
2026-04-21 06:35 54.92687 73.05041 3422 ft 196 kts 118°
2026-04-21 06:36 54.92604 73.07366 2993 ft 213 kts 70°
2026-04-21 06:36 54.93478 73.09520 2779 ft 212 kts 54°
2026-04-21 06:36 54.94137 73.11673 2520 ft 198 kts 77°
2026-04-21 06:36 54.94383 73.13862 2322 ft 171 kts 82°
2026-04-21 06:37 54.94645 73.15736 2073 ft 148 kts 76°
2026-04-21 06:37 54.94896 73.17388 1890 ft 136 kts 78°
2026-04-21 06:37 54.95096 73.18954 1692 ft 129 kts 78°
2026-04-21 06:37 54.95300 73.20462 1476 ft 128 kts 77°
2026-04-21 06:38 54.95506 73.21956 1284 ft 126 kts 78°
2026-04-21 06:38 54.95699 73.23431 1114 ft 125 kts 78°
2026-04-21 06:38 54.95903 73.24948 892 ft 130 kts 76°
2026-04-21 06:38 54.96103 73.26465 691 ft 128 kts 77°
2026-04-21 06:39 54.96309 73.27994 487 ft 131 kts 77°
2026-04-21 06:39 54.96513 73.29529 331 ft 128 kts 77°
2026-04-21 06:39 54.96691 73.30868 308 ft 96 kts 76°
2026-04-21 06:39 54.96802 73.31703 302 ft 49 kts 78°
2026-04-21 06:40 54.96842 73.32015 308 ft 13 kts 99°
2026-04-21 06:40 54.96772 73.32093 304 ft 10 kts 167°
2026-04-21 06:40 54.96680 73.32131 303 ft 17 kts 166°
2026-04-21 06:40 54.96548 73.32185 298 ft 22 kts 166°
2026-04-21 06:41 54.96453 73.32161 297 ft 11 kts 258°
2026-04-21 06:41 54.96433 73.32007 297 ft 15 kts 257°
2026-04-21 06:41 54.96405 73.31807 295 ft 19 kts 256°
2026-04-21 06:41 54.96337 73.31694 297 ft 15 kts 164°
2026-04-21 06:42 54.96293 73.31783 295 ft 8 kts 82°
2026-04-21 06:42 54.96328 73.31867 296 ft 5 kts 58°
2026-04-21 06:42 54.96327 73.31910 296 ft 4 kts 123°
2026-04-21 06:42 54.96305 73.31949 296 ft 0 kts 137°